Temp
75 77 77 69 69 68 66 66 66 69 72 72 72 72 72 73 73 72 71 70 70 69 69 68 68 68 68 68 68 70 84 83
76 76 76 75 73 65 66 66 65 68 72 71 70 71 71 71 71 70 70 69 69 69 68 67 67 67 66 67 67 69 83 82
75 76 76 73 70 66 67 66 65 66 71 69 70 79 77 74 73 69 69 69 68 68 67 66 66 66 66 67 67 84 83 82
74 75 76 73 70 68 65 64 63 65 74 73 81 78 78 79 71 68 69 68 67 67 66 65 69 75 75 68 78 83 82 79
72 74 76 71 67 67 65 64 65 68 74 75 78 79 77 74 73 73 72 70 73 72 70 76 77 77 77 79 80 81 81 78
72 71 72 73 70 68 66 65 63 66 70 75 74 76 74 75 76 75 74 77 74 75 76 79 78 78 78 78 79 81 81 77
70 70 70 70 70 66 67 65 65 64 66 70 72 75 75 76 77 78 78 79 78 77 78 78 77 77 78 77 78 80 79 78
68 66 67 67 71 68 64 67 65 64 64 66 69 70 73 75 78 80 80 80 80 80 79 78 78 77 76 77 78 78 80 77
64 63 64 64 68 67 68 68 65 64 65 67 67 67 72 73 77 80 82 81 79 79 78 78 78 78 76 77 78 77 78 78
64 63 62 64 65 67 67 65 65 64 65 65 66 68 74 76 79 79 81 80 79 77 77 76 76 77 76 77 77 78 77 76
63 61 64 65 65 64 64 65 65 63 64 64 65 67 71 75 78 78 77 77 76 76 74 72 74 76 76 77 77 77 76 77
62 63 65 63 61 61 61 62 62 63 62 63 64 67 69 74 73 72 74 72 71 71 69 73 75 75 78 75 74 75 76 75
64 61 62 61 62 59 59 58 60 60 61 63 64 66 68 69 70 71 70 70 67 67 67 68 71 73 72 69 71 73 73 73
64 65 65 64 64 64 60 59 59 60 60 61 63 64 67 67 66 67 68 66 66 67 67 67 69 69 66 69 65 67 69 71
64 65 66 66 63 64 63 61 60 59 60 60 63 65 68 68 68 68 67 66 68 69 68 68 66 66 69 70 64 62 65 71
65 65 65 66 68 66 62 62 61 62 61 62 64 67 68 68 70 68 68 71 69 64 69 68 70 69 70 71 71 69 64 62
67 64 64 65 66 67 65 64 62 62 61 60 63 65 66 70 72 71 69 70 69 68 70 70 71 69 69 70 68 69 69 64
69 65 64 64 66 66 65 62 61 62 60 59 61 63 65 67 73 71 73 72 71 71 71 70 69 70 71 70 68 67 67 64
68 66 63 63 64 65 66 65 64 64 62 62 60 61 62 64 66 68 71 71 71 71 70 70 69 67 68 69 69 69 70 68
68 67 65 64 63 64 67 65 63 64 68 67 65 63 63 65 65 67 71 72 71 71 70 70 69 67 69 69 70 70 69 68
MSLP
1007.81 1008.12 1008.21 1008.97 1009.36 1010.08 1009.87 1011.19 1011.03 1011.56 1011.42 1012.42 1013.19 1013.83 1014.62 1015.00 1015.59 1015.97 1016.48 1016.89 1017.44 1017.98 1018.86 1019.37 1019.59 1020.00 1020.07 1019.87 1019.74 1019.40 1018.92 1019.51
1007.78 1007.99 1008.18 1008.62 1009.32 1010.25 1010.09 1010.58 1011.47 1012.37 1011.39 1012.54 1013.29 1013.96 1014.51 1015.11 1015.93 1016.33 1016.85 1017.37 1017.78 1018.47 1019.25 1019.73 1020.03 1020.28 1020.42 1020.43 1020.10 1019.82 1019.41 1019.96
1007.91 1007.97 1008.08 1008.69 1009.59 1009.96 1009.94 1009.99 1010.82 1011.23 1011.15 1012.26 1013.32 1013.83 1014.33 1015.37 1015.66 1016.65 1017.24 1017.83 1018.15 1018.78 1019.56 1020.00 1020.68 1020.67 1020.71 1020.49 1020.40 1019.56 1019.65 1020.33
1007.91 1007.95 1008.01 1008.42 1009.35 1009.65 1009.65 1008.90 1010.29 1011.36 1010.56 1011.78 1012.53 1013.65 1014.36 1014.90 1015.85 1016.98 1017.86 1018.37 1018.57 1019.09 1019.85 1020.46 1020.76 1020.76 1020.77 1020.88 1020.52 1019.94 1020.02 1021.14
1007.85 1008.14 1008.16 1008.45 1009.00 1009.32 1009.63 1009.93 1010.17 1010.16 1010.12 1011.40 1012.28 1013.30 1014.29 1015.07 1016.03 1017.13 1018.05 1018.51 1018.80 1019.22 1020.15 1019.90 1019.99 1020.31 1020.55 1019.96 1020.40 1020.23 1020.42 1021.56
1007.53 1008.36 1008.66 1008.68 1009.01 1009.42 1009.44 1009.74 1009.43 1009.38 1010.77 1011.41 1012.61 1013.12 1014.29 1014.67 1015.63 1016.59 1017.47 1018.10 1018.54 1018.96 1019.22 1019.15 1019.72 1020.19 1020.17 1020.35 1020.72 1020.28 1020.58 1022.04
1007.58 1008.31 1008.70 1008.87 1009.15 1009.93 1010.15 1010.43 1010.73 1010.04 1011.00 1011.78 1012.60 1013.21 1014.00 1014.60 1015.40 1016.08 1016.82 1017.35 1018.00 1018.44 1018.48 1019.12 1019.68 1020.04 1020.32 1020.66 1020.71 1020.56 1021.00 1021.92
1007.76 1008.24 1008.73 1009.00 1009.09 1009.54 1010.35 1010.56 1011.17 1011.71 1012.11 1012.53 1013.02 1013.44 1013.95 1014.56 1015.11 1015.64 1016.26 1016.94 1017.40 1017.94 1018.13 1018.93 1019.51 1019.86 1020.33 1020.67 1020.92 1021.07 1021.12 1021.77
1008.16 1008.51 1008.99 1009.03 1009.18 1009.93 1009.95 1010.45 1011.16 1011.82 1012.51 1013.13 1013.68 1013.87 1014.23 1014.76 1015.02 1015.42 1015.65 1016.44 1017.17 1017.62 1018.36 1018.72 1019.37 1019.69 1020.30 1020.82 1021.06 1021.26 1021.32 1021.52
1008.43 1008.75 1008.99 1009.14 1009.26 1009.48 1009.88 1010.13 1010.66 1011.23 1011.99 1013.29 1013.87 1014.01 1014.39 1014.90 1015.09 1015.24 1015.58 1016.30 1017.04 1017.68 1018.13 1018.66 1019.19 1019.60 1020.06 1020.60 1020.79 1021.16 1021.37 1021.86
1008.51 1008.93 1008.88 1008.96 1008.98 1008.76 1008.92 1009.57 1010.29 1010.91 1011.47 1012.93 1013.74 1014.06 1014.60 1015.18 1015.44 1015.80 1016.35 1016.86 1017.32 1017.87 1018.13 1018.84 1019.23 1019.49 1019.95 1020.28 1020.68 1020.92 1021.37 1021.71
1008.64 1008.92 1008.92 1009.09 1008.92 1008.49 1008.67 1009.08 1009.94 1010.37 1011.74 1012.85 1013.57 1014.45 1015.34 1015.60 1016.27 1017.02 1017.22 1017.54 1018.10 1018.57 1018.67 1019.01 1019.34 1019.49 1019.62 1020.30 1020.81 1020.85 1021.12 1021.39
1008.58 1008.98 1009.33 1009.46 1009.32 1009.26 1009.22 1009.46 1010.28 1011.34 1012.46 1013.16 1014.19 1015.16 1015.82 1016.15 1016.95 1017.31 1017.47 1017.64 1018.35 1018.67 1019.08 1019.25 1019.69 1019.88 1020.12 1020.71 1020.87 1021.14 1021.23 1021.35
1008.46 1008.65 1009.05 1009.44 1009.66 1009.71 1009.86 1010.52 1011.27 1012.04 1013.12 1014.10 1014.95 1015.66 1016.13 1016.57 1016.90 1017.29 1017.68 1017.88 1018.42 1018.95 1019.32 1019.51 1020.10 1020.41 1020.22 1020.02 1020.21 1020.72 1020.94 1021.01
1008.33 1008.58 1009.05 1009.35 1010.10 1010.35 1010.69 1011.58 1012.38 1013.17 1014.05 1014.72 1015.30 1015.76 1016.12 1016.24 1016.56 1017.12 1017.55 1018.27 1018.61 1018.89 1019.36 1019.28 1019.91 1020.29 1020.06 1019.47 1019.49 1019.48 1019.61 1019.87
1008.11 1008.68 1009.14 1009.49 1009.77 1010.29 1010.90 1011.16 1012.12 1013.30 1013.89 1014.59 1015.21 1015.59 1015.50 1015.94 1016.55 1017.12 1017.45 1017.49 1018.10 1018.23 1018.87 1019.25 1019.18 1018.99 1019.56 1019.80 1019.61 1019.86 1019.55 1019.62
1007.67 1008.64 1009.16 1009.51 1009.90 1010.17 1010.76 1011.52 1012.23 1013.14 1014.01 1014.62 1014.82 1014.94 1015.18 1015.80 1015.97 1016.26 1017.05 1017.08 1017.79 1017.77 1018.65 1018.81 1018.80 1018.86 1018.70 1018.79 1019.47 1019.70 1019.80 1019.78
1007.06 1008.10 1009.03 1009.55 1009.67 1010.14 1010.63 1011.24 1011.88 1012.79 1013.58 1014.16 1014.81 1015.18 1015.62 1015.83 1015.89 1016.01 1016.40 1016.98 1017.17 1017.62 1018.01 1018.26 1018.51 1018.59 1018.62 1018.67 1018.95 1019.00 1018.82 1018.94
1006.60 1007.34 1008.44 1009.25 1009.57 1010.02 1010.54 1011.26 1011.56 1012.10 1012.86 1013.69 1014.45 1015.17 1015.69 1016.06 1016.20 1016.10 1016.36 1016.47 1016.78 1017.10 1017.50 1017.75 1018.02 1018.25 1018.33 1018.48 1018.67 1018.71 1018.54 1018.52
1005.74 1006.50 1007.24 1008.38 1009.28 1009.77 1010.29 1011.02 1011.49 1011.89 1012.24 1012.97 1013.68 1014.35 1014.93 1015.34 1015.69 1015.67 1015.78 1015.99 1016.40 1016.70 1016.99 1017.11 1017.62 1017.88 1017.87 1017.83 1018.02 1018.01 1018.19 1018.23
Wind_Speed
4 6 7 13 16 15 18 13 18 19 25 25 25 25 23 22 20 22 23 22 22 21 18 17 17 13 7 3 8 11 12 11
6 6 5 7 7 10 12 23 28 31 27 24 24 24 22 20 22 22 22 22 22 21 18 16 16 13 8 2 6 10 13 13
4 5 7 8 6 7 12 22 26 29 26 25 22 18 21 22 20 21 21 20 22 21 18 17 14 11 8 8 6 6 9 10
5 3 5 7 6 6 5 8 6 13 20 22 17 18 16 16 20 20 20 19 20 20 18 17 14 10 8 3 7 6 9 10
5 5 4 3 4 4 4 4 8 16 20 19 17 14 13 12 11 11 12 16 12 15 14 11 13 10 8 6 8 6 8 9
7 4 4 5 2 3 5 2 0 8 15 17 14 9 11 12 10 13 11 10 14 13 9 10 10 11 7 9 7 6 8 8
5 6 5 2 6 5 5 6 7 3 5 12 11 12 11 11 12 11 12 13 12 11 10 10 10 9 8 8 6 5 10 8
1 3 5 4 5 5 4 7 9 8 4 5 9 7 10 9 11 12 13 12 12 11 10 10 9 9 9 8 7 7 7 10
5 4 6 4 5 6 5 7 8 10 10 11 9 5 9 6 10 11 11 11 12 10 10 9 9 8 9 8 7 7 7 8
5 5 4 4 4 5 7 8 7 11 15 11 12 12 10 10 9 9 10 10 10 10 9 9 8 8 8 8 7 7 8 6
7 6 5 4 2 6 8 11 10 11 14 11 13 10 9 8 10 8 9 9 7 8 6 6 7 8 8 7 6 6 7 7
7 5 5 5 3 6 5 9 7 13 12 11 11 9 10 8 8 10 11 9 7 5 6 3 7 6 7 6 5 5 7 7
9 8 5 4 5 6 6 7 11 11 10 13 11 8 10 8 9 11 8 8 6 6 4 5 4 5 4 3 5 6 7 7
9 10 10 6 5 7 5 8 9 9 9 9 8 9 11 11 10 8 7 6 8 7 7 6 5 6 6 7 6 7 9 10
9 10 10 9 8 9 10 9 8 9 9 8 9 10 12 11 9 7 7 8 8 10 9 8 6 7 9 5 3 5 3 9
12 9 10 10 13 12 14 13 13 10 10 11 10 14 11 10 11 9 10 8 9 7 5 7 9 8 6 7 7 7 4 2
15 13 10 9 12 12 11 13 8 7 8 10 8 8 11 14 12 12 10 6 7 9 10 10 6 6 7 7 7 7 9 8
14 15 14 11 13 12 15 14 12 11 10 8 6 7 10 12 15 12 8 9 9 9 9 9 8 8 7 7 7 7 7 8
14 15 15 15 11 12 16 14 13 16 14 11 11 7 8 12 13 10 9 9 9 8 9 9 9 10 9 7 7 9 9 9
19 17 17 18 16 14 15 14 7 9 14 13 12 11 10 11 12 10 13 11 11 11 9 7 10 10 12 10 9 8 9 10
Wind_Direction
244 252 223 199 169 177 212 202 292 221 156 153 149 144 143 144 140 134 129 127 130 129 130 130 126 125 115 52 339 313 123 108
220 229 244 201 221 140 189 193 211 223 160 151 146 144 142 138 134 130 130 133 131 130 128 123 122 117 95 95 276 288 113 123
230 215 187 184 175 182 208 207 200 219 155 143 142 151 147 146 136 133 133 136 130 124 121 114 114 113 143 207 279 122 133 104
240 203 180 171 186 181 199 213 209 228 165 149 158 153 149 149 132 133 131 130 123 121 121 126 156 146 163 195 235 131 108 114
215 198 147 163 185 158 154 179 274 179 151 156 148 159 157 139 136 138 138 137 134 131 140 161 143 152 166 180 112 186 122 115
199 199 217 171 105 163 144 95 98 169 160 158 152 146 155 144 150 152 149 167 152 149 163 143 152 143 176 114 180 147 124 119
168 184 213 173 153 123 130 143 139 68 121 138 145 152 154 146 157 155 163 156 165 164 165 149 157 153 140 157 178 132 131 136
213 203 183 160 151 143 145 153 147 154 154 130 151 145 143 170 160 160 171 158 161 167 151 155 161 148 151 157 166 155 164 143
186 169 171 162 197 163 209 180 173 171 163 161 154 154 144 162 164 167 166 160 155 151 154 154 160 160 155 166 163 164 145 150
161 157 166 183 189 226 214 189 182 183 162 155 155 160 157 166 170 171 155 149 158 154 163 164 155 172 161 171 173 173 153 170
156 154 175 165 333 248 208 190 172 170 143 145 151 146 153 186 174 153 146 152 154 157 136 150 166 181 166 168 179 177 171 180
151 162 145 95 42 71 74 155 156 132 132 133 119 135 157 162 142 146 151 144 134 164 159 159 167 178 175 166 186 189 191 201
159 144 128 118 106 93 86 86 120 120 130 118 126 146 154 145 152 161 149 141 142 116 126 157 173 148 154 163 202 211 218 209
172 161 158 142 126 109 85 96 89 105 116 128 135 153 161 146 148 143 158 122 135 157 171 151 179 182 184 188 199 196 214 219
177 161 164 150 126 113 114 99 101 120 135 151 176 174 177 146 144 164 161 166 177 176 188 166 192 192 236 249 233 245 180 197
162 163 177 154 165 151 148 148 155 158 162 161 173 181 164 151 181 183 186 194 179 169 177 202 229 202 196 245 269 286 278 265
161 167 173 169 169 175 164 158 156 146 152 164 182 168 159 184 220 196 190 190 197 162 204 208 221 243 234 187 226 247 252 258
169 167 175 180 186 180 171 168 174 165 167 165 170 176 186 200 218 201 199 203 201 206 211 206 218 236 242 254 247 252 256 242
181 175 173 182 188 181 183 177 176 176 174 178 173 179 183 201 214 194 200 205 208 213 210 217 217 235 234 238 246 247 250 265
181 185 177 176 186 187 183 191 178 174 188 189 192 192 197 195 203 228 210 206 213 222 219 219 231 236 238 237 246 253 262 261